[[{"header":{"parameterUnit":"m.s-1","parameterCategory":1,"la1":30.2991,"la2":30.254,"lo1":-89.0895,"lo2":-89.0444,"dy":0.0017,"dx":0.0017,"nx":28,"ny":28,"refTime":"2025-12-10T09:00:00:Z","depth":0,"parameterNumber":2,"parameterNumberName":"U-component_of_WINDS"},"data":[0,0,0,0,0,0,0,0,0,0,0,0,0,0,0,0,0,0,0,0,0,0,0,0,0,0,0,0,0,0,0,0,0,0,0,0,0,0,0,0,0,0,0,0,0,0,0,0,0,0,0,0,0,0,0,0,0,0,1.2536,1.2536,0,1.2599,1.26,1.26,1.2626,1.2626,1.2626,1.2625,1.269,1.2692,1.2694,0,0,0,0,0,0,0,0,0,0,0,0,0,1.2438,1.2439,1.2536,1.2536,1.2537,1.2599,1.26,1.2601,1.2626,1.2626,1.2626,1.2625,1.2689,1.2692,1.2694,0,0,0,0,0,0,0,0,0,0,0,0,0,1.2489,1.244,1.2536,1.2557,1.256,1.2599,1.26,1.2601,1.2626,1.2626,1.2626,1.2625,1.2689,1.2691,1.2694,1.2716,0,0,1.2703,1.2704,0,0,0,0,0,0,0,0,1.2486,1.2492,1.2553,1.2556,1.2559,1.2604,1.2589,1.2639,1.2626,1.2601,1.2625,1.2625,1.2662,1.2667,1.2679,1.2719,1.2722,1.2703,1.2705,1.2706,1.2707,0,0,0,0,0,0,0,1.2482,1.249,1.2561,1.2554,1.2558,1.2564,1.2571,1.2599,1.2632,1.2603,1.2605,1.2612,1.2663,1.2676,1.2681,1.2723,1.2703,1.2705,1.2707,1.2708,1.2786,1.2786,0,0,0,0,0,0,1.2475,1.2486,1.2559,1.2563,1.2521,1.2566,1.2574,1.259,1.2632,1.2638,1.2612,1.2613,1.2672,1.2678,1.2683,1.2713,1.2706,1.2708,1.271,1.2786,1.2786,1.2787,0,0,0,0,0,0,1.2473,1.2481,1.2556,1.2525,1.2535,1.2568,1.2586,1.2591,1.2605,1.2639,1.2645,1.262,1.2672,1.2679,1.2708,1.2715,1.271,1.2712,1.2785,1.2786,1.2786,1.2771,0,0,0,0,0,0,1.247,1.248,1.2488,1.2525,1.2537,1.258,1.2586,1.2593,1.2609,1.2611,1.2647,1.2653,1.2672,1.2704,1.2711,1.2719,1.2714,1.2785,1.2786,1.2786,1.2771,1.2771,1.2772,0,0,0,0,0,1.2466,1.2481,1.2489,1.2497,1.2548,1.258,1.2587,1.2609,1.261,1.2619,1.2641,1.2652,1.2713,1.2707,1.2715,1.2724,1.2784,1.2785,1.2786,1.2771,1.2771,1.2772,0,0,0,0,0,0,1.2444,1.2486,1.2495,1.2522,1.2547,1.2584,1.2596,1.2608,1.2633,1.2633,1.266,1.2668,1.2695,1.2712,1.2704,1.2748,1.275,1.2752,1.2736,1.2736,1.2736,1.2732,1.2717,0,0,0,0,0,1.2442,1.2464,1.2501,1.2521,1.2533,1.2562,1.2577,1.2592,1.2619,1.263,1.2654,1.268,1.2706,1.2722,1.2747,1.2774,1.2783,1.2785,1.2785,1.2785,1.2787,1.2804,1.2806,1.279,1.279,1.2789,0,0,1.2438,1.2465,1.2477,1.2517,1.2539,1.2562,1.2571,1.2595,1.2613,1.2634,1.2663,1.2682,1.2713,1.2741,1.2755,1.2757,1.2793,1.2786,1.2785,1.2788,1.2805,1.2807,1.2808,1.279,1.279,1.279,0,0,1.2444,1.2466,1.2486,1.2508,1.254,1.256,1.2564,1.26,1.2614,1.2643,1.266,1.2682,1.2725,1.2747,1.2763,1.278,1.2791,1.2787,1.2787,1.2804,1.2805,1.2806,1.2814,1.2816,1.2789,1.2789,1.2789,0,1.2436,1.2471,1.2495,1.2519,1.2536,1.2557,1.2579,1.2598,1.2637,1.2649,1.265,1.2706,1.2728,1.2763,1.2767,1.278,1.2787,1.2783,1.2803,1.2805,1.2806,1.2813,1.2816,1.2788,1.2788,1.2788,1.2788,0,1.246,1.2485,1.2497,1.2535,1.2554,1.2576,1.2604,1.2621,1.2635,1.2654,1.2686,1.2713,1.2745,1.2754,1.2768,1.2792,1.2792,1.2798,1.28,1.2807,1.2814,1.2817,1.2787,1.2787,1.2788,1.2788,0,0,1.2453,1.2504,1.2509,1.2527,1.2565,1.2585,1.2609,1.264,1.2655,1.2681,1.2703,1.274,1.2746,1.2765,1.2781,1.2796,1.2809,1.28,1.2801,1.2802,1.2839,1.2835,1.2838,1.2817,1.2817,1.2818,1.2837,0,1.2464,1.2508,1.253,1.2564,1.2588,1.2609,1.263,1.2656,1.2676,1.2699,1.2721,1.2747,1.2753,1.2765,1.278,1.2804,1.2817,1.2803,1.2838,1.2839,1.283,1.2841,1.2837,1.2853,1.284,1.284,1.2841,0,1.2483,1.251,1.2547,1.2584,1.2595,1.2613,1.2645,1.2667,1.2698,1.2711,1.2733,1.275,1.2777,1.2777,1.2815,1.2805,1.2821,1.2835,1.2836,1.2841,1.284,1.2847,1.2859,1.2862,1.2845,1.2845,1.2844,0,1.2475,1.2521,1.2549,1.2564,1.2607,1.262,1.2639,1.267,1.2688,1.2716,1.2729,1.2759,1.2776,1.28,1.2825,1.2822,1.2861,1.2863,1.2874,1.2874,1.2881,1.2881,1.2897,1.289,1.289,1.289,1.289,0,1.2486,1.2508,1.2546,1.2564,1.259,1.2616,1.2641,1.2661,1.2689,1.2711,1.2731,1.2752,1.2783,1.2808,1.2827,1.2857,1.2864,1.2877,1.2882,1.2876,1.2874,1.2887,1.2886,1.2891,1.2891,1.2891,1.2891,0,1.2481,1.2508,1.254,1.258,1.259,1.2607,1.2641,1.266,1.2681,1.2709,1.2717,1.2751,1.2782,1.2809,1.2849,1.2862,1.2893,1.2899,1.2883,1.2886,1.2896,1.2895,1.2922,1.2927,1.2915,1.2915,1.2915,0,1.2486,1.2504,1.2546,1.2562,1.2581,1.2607,1.2627,1.2654,1.2673,1.2711,1.2725,1.2757,1.2784,1.2833,1.2861,1.2893,1.29,1.2907,1.2905,1.2899,1.2902,1.2901,1.2903,1.2907,1.2907,1.2907,1.2907,0,1.2493,1.2506,1.2533,1.2565,1.2588,1.2614,1.2641,1.2654,1.2687,1.2708,1.274,1.2761,1.2803,1.2835,1.2871,1.2891,1.2905,1.2908,1.2912,1.2906,1.2897,1.2903,1.2884,1.2907,1.2907,1.2907,1.2907,1.2907,1.2495,1.2512,1.2544,1.2574,1.2598,1.2623,1.2643,1.2667,1.2694,1.2731,1.2746,1.2779,1.2811,1.286,1.288,1.2907,1.291,1.2916,1.2917,1.2919,1.2918,1.2892,1.2914,1.2914,1.2914,1.2914,1.2914,0,1.2504,1.2526,1.2553,1.2591,1.2615,1.2627,1.2658,1.2677,1.2706,1.2735,1.2762,1.28,1.2832,1.2863,1.2897,1.2913,1.2921,1.2921,1.2921,1.2926,1.2914,1.2907,1.2915,1.2915,1.2915,1.2915,1.2915,1.2915,1.2511,1.2542,1.2559,1.2602,1.2624,1.2657,1.2674,1.2698,1.2721,1.2763,1.279,1.281,1.2841,1.2878,1.2908,1.2917,1.2929,1.2928,1.2938,1.2927,1.2926,1.2926,1.292,1.293,1.293,1.2949,1.2949,1.2949]},{"header":{"parameterUnit":"m.s-1","parameterCategory":1,"la1":30.2991,"la2":30.254,"lo1":-89.0895,"lo2":-89.0444,"dy":0.0017,"dx":0.0017,"nx":28,"ny":28,"refTime":"2025-12-10T09:00:00:Z","depth":0,"parameterNumber":3,"parameterNumberName":"V-component_of_WINDS"},"data":[0,0,0,0,0,0,0,0,0,0,0,0,0,0,0,0,0,0,0,0,0,0,0,0,0,0,0,0,0,0,0,0,0,0,0,0,0,0,0,0,0,0,0,0,0,0,0,0,0,0,0,0,0,0,0,0,0,0,-6.8309,-6.8311,0,-6.8493,-6.8495,-6.8497,-6.8464,-6.846,-6.8457,-6.8454,-6.8637,-6.8645,-6.8653,0,0,0,0,0,0,0,0,0,0,0,0,0,-6.7923,-6.7931,-6.8309,-6.8311,-6.8313,-6.8493,-6.8495,-6.8498,-6.8464,-6.846,-6.8456,-6.8452,-6.8635,-6.8644,-6.8654,0,0,0,0,0,0,0,0,0,0,0,0,0,-6.8097,-6.7933,-6.8308,-6.8318,-6.8321,-6.8492,-6.8495,-6.8499,-6.8465,-6.846,-6.8455,-6.8451,-6.8632,-6.8643,-6.8655,-6.8826,0,0,-6.8691,-6.8696,0,0,0,0,0,0,0,0,-6.8088,-6.8112,-6.8315,-6.8318,-6.8321,-6.8451,-6.8427,-6.8608,-6.8466,-6.841,-6.8454,-6.8448,-6.8579,-6.8595,-6.864,-6.8835,-6.8843,-6.8692,-6.87,-6.8705,-6.8708,0,0,0,0,0,0,0,-6.8076,-6.8103,-6.8382,-6.8318,-6.8322,-6.8312,-6.8332,-6.8461,-6.8519,-6.8415,-6.8413,-6.8435,-6.858,-6.8628,-6.8644,-6.8845,-6.8692,-6.8703,-6.871,-6.8715,-6.919,-6.9196,0,0,0,0,0,0,-6.8061,-6.8094,-6.8376,-6.8387,-6.819,-6.8323,-6.8345,-6.8414,-6.8518,-6.8529,-6.8439,-6.8433,-6.8611,-6.863,-6.865,-6.8858,-6.8705,-6.8716,-6.8723,-6.9185,-6.9192,-6.9197,0,0,0,0,0,0,-6.8053,-6.8087,-6.8368,-6.824,-6.8275,-6.8335,-6.8413,-6.842,-6.8469,-6.8537,-6.8546,-6.8479,-6.8608,-6.8633,-6.8783,-6.8864,-6.8721,-6.8732,-6.9178,-6.9187,-6.9195,-6.9274,0,0,0,0,0,0,-6.8042,-6.8084,-6.815,-6.8242,-6.8282,-6.85,-6.8418,-6.8427,-6.849,-6.8484,-6.8576,-6.8587,-6.8606,-6.8766,-6.8795,-6.8877,-6.8741,-6.9171,-6.9182,-6.9192,-6.9265,-6.9284,-6.9301,0,0,0,0,0,-6.8028,-6.8164,-6.8154,-6.8188,-6.8367,-6.8505,-6.8527,-6.8548,-6.8497,-6.8564,-6.8607,-6.8584,-6.885,-6.8781,-6.8814,-6.8901,-6.9166,-6.9179,-6.9191,-6.9257,-6.928,-6.9301,0,0,0,0,0,0,-6.8079,-6.8176,-6.8166,-6.8336,-6.8413,-6.8499,-6.8583,-6.8572,-6.8663,-6.8653,-6.8673,-6.8694,-6.8846,-6.8889,-6.881,-6.9073,-6.9001,-6.902,-6.9039,-6.9063,-6.908,-6.9067,-6.8751,0,0,0,0,0,-6.811,-6.8215,-6.8294,-6.8436,-6.8476,-6.8523,-6.8584,-6.8593,-6.8672,-6.8704,-6.8758,-6.8835,-6.8936,-6.9001,-6.9098,-6.9271,-6.929,-6.9347,-6.9365,-6.938,-6.9396,-6.949,-6.9516,-6.9238,-6.9238,-6.9238,0,0,-6.8175,-6.8241,-6.8306,-6.8448,-6.8509,-6.8616,-6.855,-6.8666,-6.8745,-6.8721,-6.8866,-6.8909,-6.8995,-6.9158,-6.9232,-6.9197,-6.9477,-6.9395,-6.9407,-6.9415,-6.9506,-6.9532,-6.9555,-6.9247,-6.9245,-6.9244,0,0,-6.8348,-6.841,-6.8535,-6.8597,-6.869,-6.8721,-6.8751,-6.884,-6.8868,-6.9015,-6.8999,-6.9092,-6.9266,-6.9328,-6.9382,-6.9581,-6.9562,-6.9612,-6.9706,-6.9798,-6.9819,-6.9839,-6.9909,-6.9934,-6.9628,-6.9628,-6.9628,0,-6.8417,-6.8579,-6.86,-6.8719,-6.8781,-6.8766,-6.8893,-6.8952,-6.9071,-6.9114,-6.9074,-6.9292,-6.9349,-6.9526,-6.9575,-6.9619,-6.9653,-6.9601,-6.9815,-6.9835,-6.9853,-6.992,-6.9947,-6.9633,-6.9633,-6.9632,-6.9632,0,-6.8658,-6.8771,-6.8861,-6.8979,-6.9051,-6.9173,-6.9212,-6.9283,-6.9286,-6.9321,-6.947,-6.9538,-6.9649,-6.9691,-6.9695,-6.9869,-6.9845,-6.981,-6.9738,-6.9885,-6.9948,-6.9974,-6.9641,-6.9639,-6.9637,-6.9636,0,0,-6.8867,-6.8997,-6.9029,-6.9082,-6.9184,-6.9271,-6.9392,-6.9502,-6.9562,-6.9645,-6.9746,-6.9894,-6.9863,-6.9925,-6.9935,-7.0016,-7.0168,-6.9971,-6.9974,-7.0005,-7.0364,-7.0388,-7.0418,-7.0157,-7.0162,-7.0166,-7.0356,0,-6.905,-6.9265,-6.9288,-6.9479,-6.9583,-6.9571,-6.9676,-6.9749,-6.9785,-6.9878,-6.9916,-7.0021,-6.9973,-7.001,-7.0089,-7.0133,-7.024,-7.012,-7.025,-7.0254,-7.0228,-7.0451,-7.0478,-7.0654,-7.0381,-7.0385,-7.0388,0,-6.9291,-6.9383,-6.9585,-6.9673,-6.9718,-6.9812,-6.9915,-7.0004,-7.0086,-7.0107,-7.0177,-7.0177,-7.03,-7.0225,-7.0394,-7.0312,-7.0366,-7.0396,-7.0403,-7.0415,-7.0329,-7.0468,-7.071,-7.0736,-7.0428,-7.0424,-7.0422,0,-6.9422,-6.9596,-6.974,-6.9786,-6.9893,-6.9959,-7.0007,-7.0085,-7.0149,-7.0239,-7.0281,-7.0383,-7.0438,-7.0517,-7.0544,-7.0486,-7.0712,-7.0639,-7.0731,-7.0731,-7.0778,-7.0775,-7.1031,-7.0815,-7.0815,-7.0814,-7.0814,0,-6.9623,-6.9747,-6.9801,-6.9889,-7.0028,-7.0053,-7.0189,-7.0232,-7.0302,-7.0398,-7.0393,-7.0482,-7.0513,-7.0608,-7.063,-7.0767,-7.0792,-7.0811,-7.0815,-7.0811,-7.0808,-7.0846,-7.0834,-7.0821,-7.082,-7.0818,-7.0817,0,-6.9793,-6.9834,-6.999,-7.0079,-7.0104,-7.0202,-7.0277,-7.0362,-7.0397,-7.0518,-7.0548,-7.0603,-7.0714,-7.0749,-7.0883,-7.0897,-7.1057,-7.1051,-7.103,-7.103,-7.112,-7.1111,-7.1409,-7.145,-7.1208,-7.121,-7.1212,0,-6.9917,-7.0013,-7.0113,-7.0178,-7.0228,-7.0332,-7.0399,-7.0427,-7.0496,-7.0598,-7.0671,-7.0781,-7.0871,-7.1048,-7.1099,-7.1201,-7.1196,-7.1294,-7.1211,-7.1205,-7.1197,-7.1191,-7.12,-7.1309,-7.1312,-7.1314,-7.1315,0,-7.0135,-7.0151,-7.0248,-7.0353,-7.0433,-7.0517,-7.0597,-7.065,-7.069,-7.0768,-7.0882,-7.0952,-7.109,-7.1199,-7.1303,-7.135,-7.1339,-7.1341,-7.1368,-7.1364,-7.1348,-7.1357,-7.1071,-7.1334,-7.1332,-7.1331,-7.133,-7.1329,-7.0285,-7.037,-7.0454,-7.0562,-7.0626,-7.0702,-7.0786,-7.0833,-7.0929,-7.1045,-7.1055,-7.1179,-7.1259,-7.1398,-7.145,-7.1546,-7.1518,-7.1557,-7.1566,-7.1575,-7.1582,-7.1334,-7.1565,-7.1565,-7.1564,-7.1564,-7.1563,0,-7.0502,-7.0556,-7.0655,-7.0769,-7.0854,-7.0839,-7.0928,-7.1,-7.1109,-7.1186,-7.1275,-7.1406,-7.1513,-7.1572,-7.1678,-7.1744,-7.1741,-7.177,-7.1765,-7.1776,-7.1602,-7.1568,-7.177,-7.177,-7.177,-7.177,-7.177,-7.177,-7.0624,-7.0766,-7.0793,-7.0966,-7.1019,-7.1141,-7.1193,-7.1262,-7.1324,-7.1471,-7.156,-7.16,-7.1669,-7.178,-7.1877,-7.1892,-7.193,-7.1962,-7.1974,-7.1809,-7.1788,-7.1768,-7.1736,-7.1971,-7.1971,-7.214,-7.2142,-7.2143]}]]